Information on these data can be found in provided Readme document
Contact Info: Zachary Fasnacht (zachary.fasnacht@ssaihq.com); Nickolay Krotkov (nickolay.a.krotkov@nasa.gov); Lok Lamsal (lok.lamsal@nasa.gov)

FillValue: -999.
ScaleFactor: 1e15
Units: molecules/cm^2

Date(yyyy-mm-dd),City,Country,LonCenter,LatCenter,BoundingCoordinates,Median,Q1,Q3,Mean,Baseline_Median,Baseline_Q1,Baseline_Q3,Baseline_Mean,NumGoodSamples,NumTotalSamples
2015-01-01,Pune,India,73.8667,18.5333,[73.3667 18.0333 74.3667 19.0333],1.478,0.926,2.065,1.556,2.138,1.49,2.92,2.262,161.0,535.0
2015-01-02,Pune,India,73.8667,18.5333,[73.3667 18.0333 74.3667 19.0333],1.478,0.897,2.065,1.538,2.098,1.473,2.847,2.205,191.0,538.0
2015-01-03,Pune,India,73.8667,18.5333,[73.3667 18.0333 74.3667 19.0333],1.433,0.88,1.87,1.475,2.045,1.457,2.784,2.176,169.0,548.0
2015-01-04,Pune,India,73.8667,18.5333,[73.3667 18.0333 74.3667 19.0333],1.417,0.88,1.856,1.469,2.037,1.451,2.794,2.185,189.0,527.0
2015-01-05,Pune,India,73.8667,18.5333,[73.3667 18.0333 74.3667 19.0333],1.347,0.8,1.802,1.431,2.047,1.445,2.786,2.2,160.0,540.0
2015-01-06,Pune,India,73.8667,18.5333,[73.3667 18.0333 74.3667 19.0333],1.293,0.662,1.681,1.369,1.962,1.339,2.71,2.125,188.0,520.0
2015-01-07,Pune,India,73.8667,18.5333,[73.3667 18.0333 74.3667 19.0333],1.293,0.651,1.681,1.365,1.962,1.342,2.677,2.128,180.0,553.0
2015-01-08,Pune,India,73.8667,18.5333,[73.3667 18.0333 74.3667 19.0333],1.304,0.801,1.835,1.424,1.924,1.348,2.614,2.088,192.0,532.0
2015-01-09,Pune,India,73.8667,18.5333,[73.3667 18.0333 74.3667 19.0333],1.305,0.8,1.871,1.448,1.904,1.334,2.615,2.053,225.0,547.0
2015-01-10,Pune,India,73.8667,18.5333,[73.3667 18.0333 74.3667 19.0333],1.326,0.8,1.871,1.448,1.945,1.395,2.654,2.107,219.0,515.0
2015-01-11,Pune,India,73.8667,18.5333,[73.3667 18.0333 74.3667 19.0333],1.347,0.817,1.953,1.485,1.949,1.39,2.666,2.115,244.0,504.0
2015-01-12,Pune,India,73.8667,18.5333,[73.3667 18.0333 74.3667 19.0333],1.39,0.897,2.03,1.534,1.976,1.418,2.729,2.146,224.0,520.0
2015-01-13,Pune,India,73.8667,18.5333,[73.3667 18.0333 74.3667 19.0333],1.351,0.833,2.009,1.423,1.971,1.418,2.71,2.118,239.0,492.0
2015-01-14,Pune,India,73.8667,18.5333,[73.3667 18.0333 74.3667 19.0333],1.33,0.744,2.116,1.394,1.997,1.427,2.791,2.137,208.0,511.0
2015-01-15,Pune,India,73.8667,18.5333,[73.3667 18.0333 74.3667 19.0333],1.33,0.67,2.037,1.379,1.962,1.383,2.753,2.115,219.0,495.0
2015-01-16,Pune,India,73.8667,18.5333,[73.3667 18.0333 74.3667 19.0333],1.304,0.651,1.976,1.325,1.979,1.379,2.744,2.108,216.0,518.0
2015-01-17,Pune,India,73.8667,18.5333,[73.3667 18.0333 74.3667 19.0333],1.33,0.651,1.953,1.322,2.007,1.388,2.787,2.13,186.0,505.0
2015-01-18,Pune,India,73.8667,18.5333,[73.3667 18.0333 74.3667 19.0333],1.33,0.66,1.982,1.344,2.063,1.395,2.765,2.127,207.0,505.0
2015-01-19,Pune,India,73.8667,18.5333,[73.3667 18.0333 74.3667 19.0333],1.33,0.66,1.994,1.334,2.007,1.396,2.731,2.098,187.0,515.0
2015-01-20,Pune,India,73.8667,18.5333,[73.3667 18.0333 74.3667 19.0333],1.381,0.67,2.041,1.386,2.043,1.405,2.719,2.091,205.0,495.0
2015-01-21,Pune,India,73.8667,18.5333,[73.3667 18.0333 74.3667 19.0333],1.532,0.794,2.186,1.447,2.071,1.432,2.762,2.105,177.0,509.0
2015-01-22,Pune,India,73.8667,18.5333,[73.3667 18.0333 74.3667 19.0333],1.479,0.837,2.142,1.453,2.069,1.407,2.789,2.093,205.0,489.0
2015-01-23,Pune,India,73.8667,18.5333,[73.3667 18.0333 74.3667 19.0333],1.426,0.685,2.072,1.401,2.0,1.364,2.758,2.068,186.0,519.0
2015-01-24,Pune,India,73.8667,18.5333,[73.3667 18.0333 74.3667 19.0333],1.468,0.779,2.037,1.39,2.013,1.389,2.719,2.07,172.0,499.0
2015-01-25,Pune,India,73.8667,18.5333,[73.3667 18.0333 74.3667 19.0333],1.502,0.79,2.041,1.436,1.941,1.309,2.644,2.007,206.0,541.0
2015-01-26,Pune,India,73.8667,18.5333,[73.3667 18.0333 74.3667 19.0333],1.443,0.779,1.982,1.392,1.907,1.289,2.595,1.981,189.0,539.0
2015-01-27,Pune,India,73.8667,18.5333,[73.3667 18.0333 74.3667 19.0333],1.566,0.79,2.089,1.472,1.893,1.267,2.581,1.974,214.0,532.0
2015-01-28,Pune,India,73.8667,18.5333,[73.3667 18.0333 74.3667 19.0333],1.566,0.878,2.091,1.601,1.916,1.3,2.584,2.011,199.0,546.0
2015-01-29,Pune,India,73.8667,18.5333,[73.3667 18.0333 74.3667 19.0333],1.566,0.875,2.147,1.596,1.922,1.299,2.617,2.017,213.0,517.0
2015-01-30,Pune,India,73.8667,18.5333,[73.3667 18.0333 74.3667 19.0333],1.693,0.951,2.321,1.71,1.955,1.322,2.651,2.055,183.0,536.0
2015-01-31,Pune,India,73.8667,18.5333,[73.3667 18.0333 74.3667 19.0333],1.711,0.975,2.518,1.817,1.944,1.325,2.631,2.049,199.0,522.0
2015-02-01,Pune,India,73.8667,18.5333,[73.3667 18.0333 74.3667 19.0333],1.708,0.959,2.446,1.786,1.954,1.344,2.622,2.047,216.0,547.0
2015-02-02,Pune,India,73.8667,18.5333,[73.3667 18.0333 74.3667 19.0333],1.708,1.102,2.428,1.801,1.9,1.292,2.578,1.986,213.0,534.0
2015-02-03,Pune,India,73.8667,18.5333,[73.3667 18.0333 74.3667 19.0333],1.728,1.117,2.446,1.848,1.875,1.269,2.574,1.983,241.0,536.0
2015-02-04,Pune,India,73.8667,18.5333,[73.3667 18.0333 74.3667 19.0333],1.723,1.084,2.446,1.848,1.854,1.251,2.576,1.983,223.0,546.0
2015-02-05,Pune,India,73.8667,18.5333,[73.3667 18.0333 74.3667 19.0333],1.733,1.117,2.48,1.877,1.844,1.245,2.543,1.968,243.0,526.0
2015-02-06,Pune,India,73.8667,18.5333,[73.3667 18.0333 74.3667 19.0333],1.838,1.236,2.543,1.946,1.847,1.257,2.549,1.972,215.0,539.0
2015-02-07,Pune,India,73.8667,18.5333,[73.3667 18.0333 74.3667 19.0333],1.883,1.185,2.592,1.95,1.899,1.282,2.621,2.02,243.0,520.0
2015-02-08,Pune,India,73.8667,18.5333,[73.3667 18.0333 74.3667 19.0333],1.932,1.205,2.627,1.995,1.874,1.259,2.609,2.004,224.0,551.0
2015-02-09,Pune,India,73.8667,18.5333,[73.3667 18.0333 74.3667 19.0333],2.006,1.304,2.815,2.07,1.9,1.287,2.668,2.033,208.0,531.0
2015-02-10,Pune,India,73.8667,18.5333,[73.3667 18.0333 74.3667 19.0333],2.006,1.304,2.801,2.083,1.933,1.271,2.675,2.05,232.0,546.0
2015-02-11,Pune,India,73.8667,18.5333,[73.3667 18.0333 74.3667 19.0333],2.006,1.304,2.776,2.065,2.003,1.332,2.724,2.098,207.0,515.0
2015-02-12,Pune,India,73.8667,18.5333,[73.3667 18.0333 74.3667 19.0333],2.014,1.328,2.644,2.071,1.972,1.324,2.691,2.086,233.0,508.0
2015-02-13,Pune,India,73.8667,18.5333,[73.3667 18.0333 74.3667 19.0333],2.02,1.353,2.644,2.115,1.956,1.324,2.689,2.097,219.0,526.0
2015-02-14,Pune,India,73.8667,18.5333,[73.3667 18.0333 74.3667 19.0333],2.104,1.404,2.801,2.163,2.019,1.362,2.74,2.13,239.0,495.0
2015-02-15,Pune,India,73.8667,18.5333,[73.3667 18.0333 74.3667 19.0333],2.173,1.47,2.638,2.201,2.063,1.394,2.752,2.178,207.0,513.0
2015-02-16,Pune,India,73.8667,18.5333,[73.3667 18.0333 74.3667 19.0333],2.153,1.681,2.706,2.24,2.069,1.455,2.773,2.204,221.0,497.0
2015-02-17,Pune,India,73.8667,18.5333,[73.3667 18.0333 74.3667 19.0333],2.201,1.689,2.762,2.297,2.156,1.53,2.875,2.282,222.0,522.0
2015-02-18,Pune,India,73.8667,18.5333,[73.3667 18.0333 74.3667 19.0333],2.278,1.689,2.867,2.346,2.16,1.578,2.922,2.323,214.0,510.0
2015-02-19,Pune,India,73.8667,18.5333,[73.3667 18.0333 74.3667 19.0333],2.201,1.636,2.867,2.313,2.109,1.521,2.883,2.279,243.0,511.0
2015-02-20,Pune,India,73.8667,18.5333,[73.3667 18.0333 74.3667 19.0333],2.201,1.658,2.867,2.326,2.189,1.553,2.953,2.337,223.0,522.0
2015-02-21,Pune,India,73.8667,18.5333,[73.3667 18.0333 74.3667 19.0333],2.201,1.658,2.867,2.326,2.231,1.58,3.042,2.379,223.0,502.0
2015-02-22,Pune,India,73.8667,18.5333,[73.3667 18.0333 74.3667 19.0333],2.201,1.683,2.878,2.393,2.206,1.557,3.005,2.358,195.0,516.0
2015-02-23,Pune,India,73.8667,18.5333,[73.3667 18.0333 74.3667 19.0333],2.022,1.361,2.73,2.155,2.272,1.617,3.073,2.394,223.0,496.0
2015-02-24,Pune,India,73.8667,18.5333,[73.3667 18.0333 74.3667 19.0333],1.958,1.342,2.665,2.089,2.219,1.565,3.025,2.362,205.0,526.0
2015-02-25,Pune,India,73.8667,18.5333,[73.3667 18.0333 74.3667 19.0333],1.958,1.308,2.615,2.033,2.202,1.541,3.04,2.352,190.0,506.0
2015-02-26,Pune,India,73.8667,18.5333,[73.3667 18.0333 74.3667 19.0333],1.935,1.308,2.621,2.026,2.18,1.499,3.021,2.331,223.0,548.0
2015-02-27,Pune,India,73.8667,18.5333,[73.3667 18.0333 74.3667 19.0333],1.919,1.221,2.621,2.002,2.184,1.492,2.96,2.319,214.0,547.0
2015-02-28,Pune,India,73.8667,18.5333,[73.3667 18.0333 74.3667 19.0333],1.864,1.152,2.621,1.985,2.18,1.458,2.958,2.311,238.0,538.0
2015-03-01,Pune,India,73.8667,18.5333,[73.3667 18.0333 74.3667 19.0333],1.751,1.107,2.527,1.901,2.146,1.461,3.006,2.298,243.0,555.0
2015-03-02,Pune,India,73.8667,18.5333,[73.3667 18.0333 74.3667 19.0333],1.819,1.152,2.527,1.923,2.165,1.458,2.975,2.277,262.0,526.0
2015-03-03,Pune,India,73.8667,18.5333,[73.3667 18.0333 74.3667 19.0333],1.526,1.008,2.492,1.836,2.131,1.421,3.004,2.272,231.0,543.0
2015-03-04,Pune,India,73.8667,18.5333,[73.3667 18.0333 74.3667 19.0333],1.393,0.882,2.295,1.65,2.068,1.38,2.892,2.202,237.0,528.0
2015-03-05,Pune,India,73.8667,18.5333,[73.3667 18.0333 74.3667 19.0333],1.347,0.818,2.096,1.54,2.066,1.352,2.855,2.168,253.0,550.0
2015-03-06,Pune,India,73.8667,18.5333,[73.3667 18.0333 74.3667 19.0333],1.342,0.796,2.124,1.511,2.103,1.396,2.877,2.206,231.0,537.0
2015-03-07,Pune,India,73.8667,18.5333,[73.3667 18.0333 74.3667 19.0333],1.308,0.783,2.124,1.488,2.074,1.399,2.804,2.162,259.0,536.0
2015-03-08,Pune,India,73.8667,18.5333,[73.3667 18.0333 74.3667 19.0333],1.342,0.795,2.096,1.492,2.049,1.35,2.756,2.118,284.0,547.0
2015-03-09,Pune,India,73.8667,18.5333,[73.3667 18.0333 74.3667 19.0333],1.308,0.796,2.068,1.455,2.012,1.346,2.758,2.098,303.0,526.0
2015-03-10,Pune,India,73.8667,18.5333,[73.3667 18.0333 74.3667 19.0333],1.451,0.916,2.148,1.542,2.01,1.369,2.758,2.105,275.0,540.0
2015-03-11,Pune,India,73.8667,18.5333,[73.3667 18.0333 74.3667 19.0333],1.491,0.954,2.281,1.589,2.056,1.389,2.829,2.138,302.0,521.0
2015-03-12,Pune,India,73.8667,18.5333,[73.3667 18.0333 74.3667 19.0333],1.46,0.894,2.281,1.579,2.043,1.406,2.819,2.14,285.0,550.0
2015-03-13,Pune,India,73.8667,18.5333,[73.3667 18.0333 74.3667 19.0333],1.432,0.867,2.281,1.555,2.055,1.436,2.834,2.152,252.0,532.0
2015-03-14,Pune,India,73.8667,18.5333,[73.3667 18.0333 74.3667 19.0333],1.477,0.894,2.222,1.576,2.103,1.486,2.91,2.189,267.0,546.0
2015-03-15,Pune,India,73.8667,18.5333,[73.3667 18.0333 74.3667 19.0333],1.477,0.894,2.154,1.557,2.098,1.49,2.824,2.171,243.0,514.0
2015-03-16,Pune,India,73.8667,18.5333,[73.3667 18.0333 74.3667 19.0333],1.491,0.863,2.152,1.551,2.099,1.499,2.865,2.19,243.0,507.0
2015-03-17,Pune,India,73.8667,18.5333,[73.3667 18.0333 74.3667 19.0333],1.491,0.818,2.152,1.545,2.112,1.528,2.86,2.212,246.0,525.0
2015-03-18,Pune,India,73.8667,18.5333,[73.3667 18.0333 74.3667 19.0333],1.711,0.954,2.409,1.667,2.175,1.575,2.901,2.268,266.0,497.0
2015-03-19,Pune,India,73.8667,18.5333,[73.3667 18.0333 74.3667 19.0333],1.884,1.053,2.547,1.809,2.272,1.632,2.949,2.343,241.0,515.0
2015-03-20,Pune,India,73.8667,18.5333,[73.3667 18.0333 74.3667 19.0333],1.82,1.082,2.504,1.821,2.288,1.633,3.0,2.369,229.0,501.0
2015-03-21,Pune,India,73.8667,18.5333,[73.3667 18.0333 74.3667 19.0333],1.874,1.093,2.602,1.896,2.308,1.674,2.993,2.381,246.0,526.0
2015-03-22,Pune,India,73.8667,18.5333,[73.3667 18.0333 74.3667 19.0333],1.89,1.12,2.632,1.94,2.36,1.709,3.118,2.434,222.0,516.0
2015-03-23,Pune,India,73.8667,18.5333,[73.3667 18.0333 74.3667 19.0333],1.916,1.106,2.678,1.958,2.387,1.691,3.141,2.452,226.0,516.0
2015-03-24,Pune,India,73.8667,18.5333,[73.3667 18.0333 74.3667 19.0333],2.041,1.365,2.745,2.092,2.414,1.747,3.154,2.483,237.0,527.0
2015-03-25,Pune,India,73.8667,18.5333,[73.3667 18.0333 74.3667 19.0333],2.078,1.455,2.776,2.113,2.38,1.726,3.074,2.449,256.0,504.0
2015-03-26,Pune,India,73.8667,18.5333,[73.3667 18.0333 74.3667 19.0333],2.078,1.532,2.741,2.157,2.358,1.736,3.043,2.435,229.0,517.0
2015-03-27,Pune,India,73.8667,18.5333,[73.3667 18.0333 74.3667 19.0333],1.932,1.319,2.617,2.001,2.341,1.686,3.058,2.431,255.0,497.0
2015-03-28,Pune,India,73.8667,18.5333,[73.3667 18.0333 74.3667 19.0333],1.932,1.319,2.617,2.001,2.269,1.683,3.025,2.389,255.0,524.0
2015-03-29,Pune,India,73.8667,18.5333,[73.3667 18.0333 74.3667 19.0333],1.936,1.323,2.54,1.991,2.246,1.673,2.966,2.363,241.0,506.0
2015-03-30,Pune,India,73.8667,18.5333,[73.3667 18.0333 74.3667 19.0333],1.928,1.323,2.54,1.971,2.238,1.648,3.013,2.357,272.0,549.0
2015-03-31,Pune,India,73.8667,18.5333,[73.3667 18.0333 74.3667 19.0333],1.936,1.323,2.545,1.997,2.192,1.624,2.909,2.32,259.0,543.0
2015-04-01,Pune,India,73.8667,18.5333,[73.3667 18.0333 74.3667 19.0333],1.928,1.323,2.58,2.004,2.171,1.622,2.865,2.296,263.0,533.0
2015-04-02,Pune,India,73.8667,18.5333,[73.3667 18.0333 74.3667 19.0333],1.851,1.302,2.54,1.959,2.138,1.611,2.841,2.255,261.0,551.0
2015-04-03,Pune,India,73.8667,18.5333,[73.3667 18.0333 74.3667 19.0333],1.769,1.246,2.524,1.904,2.095,1.579,2.788,2.205,276.0,523.0
2015-04-04,Pune,India,73.8667,18.5333,[73.3667 18.0333 74.3667 19.0333],1.696,1.196,2.54,1.905,2.07,1.556,2.785,2.187,252.0,542.0
2015-04-05,Pune,India,73.8667,18.5333,[73.3667 18.0333 74.3667 19.0333],1.524,1.127,2.294,1.755,2.004,1.513,2.73,2.136,251.0,527.0
2015-04-06,Pune,India,73.8667,18.5333,[73.3667 18.0333 74.3667 19.0333],1.558,1.138,2.329,1.802,1.981,1.503,2.696,2.119,280.0,548.0
2015-04-07,Pune,India,73.8667,18.5333,[73.3667 18.0333 74.3667 19.0333],1.532,1.165,2.302,1.801,1.908,1.442,2.65,2.055,254.0,538.0
2015-04-08,Pune,India,73.8667,18.5333,[73.3667 18.0333 74.3667 19.0333],1.524,1.127,2.222,1.737,1.911,1.452,2.585,2.034,252.0,538.0
2015-04-09,Pune,India,73.8667,18.5333,[73.3667 18.0333 74.3667 19.0333],1.461,1.108,2.203,1.71,1.917,1.457,2.575,2.048,245.0,552.0
2015-04-10,Pune,India,73.8667,18.5333,[73.3667 18.0333 74.3667 19.0333],1.404,1.095,2.173,1.671,1.914,1.467,2.576,2.038,261.0,531.0
2015-04-11,Pune,India,73.8667,18.5333,[73.3667 18.0333 74.3667 19.0333],1.524,1.138,2.231,1.755,1.915,1.453,2.57,2.027,235.0,546.0
2015-04-12,Pune,India,73.8667,18.5333,[73.3667 18.0333 74.3667 19.0333],1.461,1.095,2.173,1.68,1.92,1.435,2.581,2.026,262.0,526.0
2015-04-13,Pune,India,73.8667,18.5333,[73.3667 18.0333 74.3667 19.0333],1.369,1.038,2.157,1.659,1.895,1.412,2.559,2.003,244.0,553.0
2015-04-14,Pune,India,73.8667,18.5333,[73.3667 18.0333 74.3667 19.0333],1.486,1.095,2.193,1.708,1.893,1.415,2.541,1.996,227.0,533.0
2015-04-15,Pune,India,73.8667,18.5333,[73.3667 18.0333 74.3667 19.0333],1.468,1.095,2.193,1.713,1.89,1.402,2.539,1.981,247.0,551.0
2015-04-16,Pune,India,73.8667,18.5333,[73.3667 18.0333 74.3667 19.0333],1.372,1.078,2.114,1.635,1.872,1.386,2.481,1.947,221.0,520.0
2015-04-17,Pune,India,73.8667,18.5333,[73.3667 18.0333 74.3667 19.0333],1.349,1.036,2.008,1.556,1.823,1.347,2.421,1.92,226.0,513.0
2015-04-18,Pune,India,73.8667,18.5333,[73.3667 18.0333 74.3667 19.0333],1.424,1.091,2.044,1.602,1.842,1.371,2.495,1.943,234.0,530.0
2015-04-19,Pune,India,73.8667,18.5333,[73.3667 18.0333 74.3667 19.0333],1.468,1.095,2.077,1.633,1.832,1.357,2.446,1.937,253.0,501.0
2015-04-20,Pune,India,73.8667,18.5333,[73.3667 18.0333 74.3667 19.0333],1.602,1.11,2.145,1.691,1.872,1.368,2.476,1.956,230.0,517.0
2015-04-21,Pune,India,73.8667,18.5333,[73.3667 18.0333 74.3667 19.0333],1.591,1.113,2.024,1.618,1.837,1.354,2.426,1.916,228.0,503.0
2015-04-22,Pune,India,73.8667,18.5333,[73.3667 18.0333 74.3667 19.0333],1.593,1.116,2.081,1.644,1.827,1.344,2.417,1.909,262.0,524.0
2015-04-23,Pune,India,73.8667,18.5333,[73.3667 18.0333 74.3667 19.0333],1.607,1.116,2.044,1.661,1.781,1.245,2.359,1.863,254.0,509.0
2015-04-24,Pune,India,73.8667,18.5333,[73.3667 18.0333 74.3667 19.0333],1.593,1.11,2.011,1.617,1.78,1.283,2.323,1.851,269.0,507.0
2015-04-25,Pune,India,73.8667,18.5333,[73.3667 18.0333 74.3667 19.0333],1.628,1.116,2.081,1.657,1.777,1.267,2.32,1.843,282.0,518.0
2015-04-26,Pune,India,73.8667,18.5333,[73.3667 18.0333 74.3667 19.0333],1.641,1.124,2.109,1.672,1.779,1.31,2.31,1.845,304.0,497.0
2015-04-27,Pune,India,73.8667,18.5333,[73.3667 18.0333 74.3667 19.0333],1.727,1.191,2.193,1.732,1.773,1.275,2.288,1.834,277.0,512.0
2015-04-28,Pune,India,73.8667,18.5333,[73.3667 18.0333 74.3667 19.0333],1.647,1.141,2.138,1.682,1.789,1.279,2.322,1.848,304.0,494.0
2015-04-29,Pune,India,73.8667,18.5333,[73.3667 18.0333 74.3667 19.0333],1.603,1.116,2.094,1.642,1.822,1.331,2.357,1.875,290.0,524.0
2015-04-30,Pune,India,73.8667,18.5333,[73.3667 18.0333 74.3667 19.0333],1.607,1.173,2.109,1.668,1.831,1.341,2.379,1.89,275.0,504.0
2015-05-01,Pune,India,73.8667,18.5333,[73.3667 18.0333 74.3667 19.0333],1.67,1.188,2.191,1.726,1.836,1.339,2.415,1.913,309.0,545.0
2015-05-02,Pune,India,73.8667,18.5333,[73.3667 18.0333 74.3667 19.0333],1.709,1.243,2.237,1.772,1.832,1.363,2.352,1.891,302.0,542.0
2015-05-03,Pune,India,73.8667,18.5333,[73.3667 18.0333 74.3667 19.0333],1.739,1.268,2.273,1.819,1.813,1.363,2.338,1.879,301.0,534.0
2015-05-04,Pune,India,73.8667,18.5333,[73.3667 18.0333 74.3667 19.0333],1.763,1.245,2.275,1.82,1.827,1.377,2.355,1.888,306.0,550.0
2015-05-05,Pune,India,73.8667,18.5333,[73.3667 18.0333 74.3667 19.0333],1.735,1.241,2.273,1.791,1.825,1.382,2.353,1.879,323.0,525.0
2015-05-06,Pune,India,73.8667,18.5333,[73.3667 18.0333 74.3667 19.0333],1.834,1.226,2.413,1.846,1.84,1.324,2.372,1.883,292.0,542.0
2015-05-07,Pune,India,73.8667,18.5333,[73.3667 18.0333 74.3667 19.0333],1.667,1.169,2.265,1.728,1.844,1.345,2.408,1.887,274.0,532.0
2015-05-08,Pune,India,73.8667,18.5333,[73.3667 18.0333 74.3667 19.0333],1.603,1.167,2.328,1.704,1.841,1.392,2.452,1.917,278.0,558.0
2015-05-09,Pune,India,73.8667,18.5333,[73.3667 18.0333 74.3667 19.0333],1.615,1.218,2.381,1.753,1.849,1.377,2.493,1.934,257.0,542.0
2015-05-10,Pune,India,73.8667,18.5333,[73.3667 18.0333 74.3667 19.0333],1.667,1.225,2.413,1.774,1.84,1.349,2.479,1.908,255.0,543.0
2015-05-11,Pune,India,73.8667,18.5333,[73.3667 18.0333 74.3667 19.0333],1.673,1.225,2.445,1.779,1.873,1.363,2.526,1.941,259.0,549.0
2015-05-12,Pune,India,73.8667,18.5333,[73.3667 18.0333 74.3667 19.0333],1.667,1.225,2.402,1.77,1.865,1.365,2.504,1.933,281.0,531.0
2015-05-13,Pune,India,73.8667,18.5333,[73.3667 18.0333 74.3667 19.0333],1.739,1.313,2.487,1.839,1.889,1.374,2.504,1.938,254.0,542.0
2015-05-14,Pune,India,73.8667,18.5333,[73.3667 18.0333 74.3667 19.0333],1.67,1.157,2.381,1.74,1.858,1.313,2.465,1.909,284.0,522.0
2015-05-15,Pune,India,73.8667,18.5333,[73.3667 18.0333 74.3667 19.0333],1.56,1.11,2.366,1.708,1.794,1.255,2.41,1.857,267.0,551.0
2015-05-16,Pune,India,73.8667,18.5333,[73.3667 18.0333 74.3667 19.0333],1.498,1.042,2.108,1.59,1.774,1.248,2.384,1.847,251.0,532.0
2015-05-17,Pune,India,73.8667,18.5333,[73.3667 18.0333 74.3667 19.0333],1.432,1.02,2.07,1.556,1.773,1.248,2.367,1.834,267.0,544.0
2015-05-18,Pune,India,73.8667,18.5333,[73.3667 18.0333 74.3667 19.0333],1.409,0.992,1.965,1.478,1.769,1.256,2.362,1.835,245.0,512.0
2015-05-19,Pune,India,73.8667,18.5333,[73.3667 18.0333 74.3667 19.0333],1.409,0.992,1.965,1.493,1.731,1.232,2.334,1.81,246.0,504.0
2015-05-20,Pune,India,73.8667,18.5333,[73.3667 18.0333 74.3667 19.0333],1.42,1.02,1.965,1.505,1.759,1.253,2.356,1.834,254.0,518.0
2015-05-21,Pune,India,73.8667,18.5333,[73.3667 18.0333 74.3667 19.0333],1.42,1.016,1.958,1.502,1.769,1.293,2.318,1.825,273.0,490.0
2015-05-22,Pune,India,73.8667,18.5333,[73.3667 18.0333 74.3667 19.0333],1.514,0.972,2.118,1.564,1.789,1.275,2.354,1.844,254.0,502.0
2015-05-23,Pune,India,73.8667,18.5333,[73.3667 18.0333 74.3667 19.0333],1.454,0.949,2.066,1.56,1.775,1.257,2.33,1.841,234.0,486.0
2015-05-24,Pune,India,73.8667,18.5333,[73.3667 18.0333 74.3667 19.0333],1.451,0.953,1.99,1.538,1.758,1.242,2.272,1.815,265.0,514.0
2015-05-25,Pune,India,73.8667,18.5333,[73.3667 18.0333 74.3667 19.0333],1.346,0.87,1.92,1.408,1.721,1.155,2.252,1.762,252.0,499.0
2015-05-26,Pune,India,73.8667,18.5333,[73.3667 18.0333 74.3667 19.0333],1.15,0.735,1.814,1.268,1.647,1.094,2.19,1.691,255.0,502.0
2015-05-27,Pune,India,73.8667,18.5333,[73.3667 18.0333 74.3667 19.0333],1.104,0.731,1.757,1.221,1.584,1.041,2.2,1.651,260.0,510.0
2015-05-28,Pune,India,73.8667,18.5333,[73.3667 18.0333 74.3667 19.0333],1.104,0.731,1.743,1.211,1.533,1.013,2.148,1.582,281.0,492.0
2015-05-29,Pune,India,73.8667,18.5333,[73.3667 18.0333 74.3667 19.0333],1.117,0.73,1.757,1.225,1.492,0.951,2.093,1.543,251.0,505.0
2015-05-30,Pune,India,73.8667,18.5333,[73.3667 18.0333 74.3667 19.0333],1.104,0.655,1.705,1.188,1.501,0.939,2.111,1.545,280.0,485.0
2015-05-31,Pune,India,73.8667,18.5333,[73.3667 18.0333 74.3667 19.0333],1.104,0.651,1.679,1.182,1.466,0.898,2.044,1.492,262.0,515.0
2015-06-01,Pune,India,73.8667,18.5333,[73.3667 18.0333 74.3667 19.0333],1.092,0.634,1.626,1.156,1.459,0.829,2.008,1.478,240.0,493.0
2015-06-02,Pune,India,73.8667,18.5333,[73.3667 18.0333 74.3667 19.0333],1.092,0.622,1.568,1.141,1.387,0.742,1.953,1.418,268.0,535.0
2015-06-03,Pune,India,73.8667,18.5333,[73.3667 18.0333 74.3667 19.0333],0.986,0.576,1.473,1.055,1.257,0.655,1.933,1.337,250.0,533.0
2015-06-04,Pune,India,73.8667,18.5333,[73.3667 18.0333 74.3667 19.0333],0.983,0.574,1.473,1.042,1.123,0.622,1.808,1.252,238.0,527.0
2015-06-05,Pune,India,73.8667,18.5333,[73.3667 18.0333 74.3667 19.0333],0.934,0.537,1.4,0.977,1.066,0.566,1.766,1.19,222.0,544.0
2015-06-06,Pune,India,73.8667,18.5333,[73.3667 18.0333 74.3667 19.0333],0.934,0.537,1.4,0.977,0.998,0.476,1.647,1.075,222.0,516.0
2015-06-07,Pune,India,73.8667,18.5333,[73.3667 18.0333 74.3667 19.0333],0.959,0.528,1.429,0.986,0.889,0.41,1.491,0.998,218.0,536.0
2015-06-08,Pune,India,73.8667,18.5333,[73.3667 18.0333 74.3667 19.0333],0.894,0.475,1.386,0.913,0.813,0.371,1.313,0.911,181.0,521.0
2015-06-09,Pune,India,73.8667,18.5333,[73.3667 18.0333 74.3667 19.0333],0.934,0.506,1.427,0.998,0.875,0.407,1.407,0.959,192.0,547.0
2015-06-10,Pune,India,73.8667,18.5333,[73.3667 18.0333 74.3667 19.0333],0.989,0.605,1.491,1.104,0.876,0.416,1.364,0.967,163.0,535.0
2015-06-11,Pune,India,73.8667,18.5333,[73.3667 18.0333 74.3667 19.0333],0.985,0.605,1.473,1.085,0.855,0.419,1.422,0.954,136.0,536.0
2015-06-12,Pune,India,73.8667,18.5333,[73.3667 18.0333 74.3667 19.0333],0.985,0.542,1.473,1.077,0.88,0.436,1.395,0.984,115.0,547.0
2015-06-13,Pune,India,73.8667,18.5333,[73.3667 18.0333 74.3667 19.0333],0.985,0.542,1.473,1.077,0.923,0.511,1.421,1.009,115.0,527.0
2015-06-14,Pune,India,73.8667,18.5333,[73.3667 18.0333 74.3667 19.0333],1.034,0.432,1.672,1.144,0.928,0.496,1.47,1.031,86.0,542.0
2015-06-15,Pune,India,73.8667,18.5333,[73.3667 18.0333 74.3667 19.0333],1.034,0.432,1.672,1.144,0.925,0.495,1.465,1.025,86.0,522.0
2015-06-16,Pune,India,73.8667,18.5333,[73.3667 18.0333 74.3667 19.0333],1.141,0.415,1.767,1.179,0.973,0.53,1.429,1.02,76.0,554.0
2015-06-17,Pune,India,73.8667,18.5333,[73.3667 18.0333 74.3667 19.0333],1.181,0.438,1.863,1.305,0.955,0.507,1.414,1.012,48.0,534.0
2015-06-18,Pune,India,73.8667,18.5333,[73.3667 18.0333 74.3667 19.0333],1.181,0.415,1.823,1.232,0.934,0.413,1.426,0.969,55.0,547.0
2015-06-19,Pune,India,73.8667,18.5333,[73.3667 18.0333 74.3667 19.0333],1.181,0.276,1.738,1.134,0.915,0.384,1.35,0.908,42.0,514.0
2015-06-20,Pune,India,73.8667,18.5333,[73.3667 18.0333 74.3667 19.0333],0.967,0.298,1.425,0.955,0.905,0.367,1.332,0.882,53.0,504.0
2015-06-21,Pune,India,73.8667,18.5333,[73.3667 18.0333 74.3667 19.0333],0.757,0.276,1.406,0.878,0.862,0.358,1.322,0.862,67.0,522.0
2015-06-22,Pune,India,73.8667,18.5333,[73.3667 18.0333 74.3667 19.0333],0.757,0.276,1.406,0.878,0.896,0.369,1.339,0.875,67.0,492.0
2015-06-23,Pune,India,73.8667,18.5333,[73.3667 18.0333 74.3667 19.0333],0.757,0.276,1.406,0.878,0.851,0.36,1.305,0.864,67.0,510.0
2015-06-24,Pune,India,73.8667,18.5333,[73.3667 18.0333 74.3667 19.0333],0.502,0.196,1.086,0.652,0.812,0.265,1.26,0.834,42.0,495.0
2015-06-25,Pune,India,73.8667,18.5333,[73.3667 18.0333 74.3667 19.0333],0.688,0.278,1.091,0.711,0.803,0.273,1.289,0.831,78.0,520.0
2015-06-26,Pune,India,73.8667,18.5333,[73.3667 18.0333 74.3667 19.0333],0.508,0.307,1.086,0.689,0.695,0.357,1.215,0.804,96.0,506.0
2015-06-27,Pune,India,73.8667,18.5333,[73.3667 18.0333 74.3667 19.0333],0.508,0.269,0.998,0.635,0.685,0.342,1.155,0.748,121.0,505.0
2015-06-28,Pune,India,73.8667,18.5333,[73.3667 18.0333 74.3667 19.0333],0.502,0.257,0.976,0.602,0.577,0.26,1.091,0.665,138.0,516.0